When you browse on this site, cookies collect data to enhance your experience and personalize the content and advertising you see.
Visit our Privacy Policy to learn more. By continuing to use the site, you agree to this use of cookies and data.
  • En España
  • Lista de países
  • Para 7 días
  • Temperatura del agua
  • El tiempo en el mapa
  • Informadores
  • user-avatar
    Iniciar sesión

    Tiempo cada hora Lubango

    Hoy, 16 Diciembre, Lunes

    Tiempo Temperatura Precipitaciones Viento Presión Humedad
    00:00 +18°C° 0.1 mm 1 mps 607 mmHg 88%
    01:00 +18°C° 0 mm 1 mps 607 mmHg 84%
    02:00 +18°C° 0 mm 1 mps 607 mmHg 84%
    03:00 +18°C° 0 mm 1 mps 607 mmHg 84%
    04:00 +16°C° 0 mm 1 mps 606 mmHg 84%
    05:00 +18°C° 0.4 mm 1 mps 607 mmHg 83%
    06:00 +18°C° 0.4 mm 1 mps 608 mmHg 82%
    07:00 +19°C° 0.4 mm 1 mps 608 mmHg 80%
    08:00 +20°C° 0.8 mm 1 mps 609 mmHg 78%
    09:00 +20°C° 0.8 mm 1 mps 609 mmHg 75%
    10:00 +20°C° 0.8 mm 2 mps 609 mmHg 73%
    11:00 +21°C° 0.2 mm 2 mps 609 mmHg 66%
    12:00 +22°C° 0.2 mm 3 mps 609 mmHg 59%
    13:00 +25°C° 0.2 mm 3 mps 609 mmHg 51%
    14:00 +24°C° 0.9 mm 3 mps 609 mmHg 59%
    15:00 +21°C° 0.9 mm 2 mps 608 mmHg 66%
    16:00 +20°C° 0.9 mm 2 mps 607 mmHg 73%
    17:00 +19°C° 0.9 mm 2 mps 607 mmHg 78%
    18:00 +19°C° 0.9 mm 1 mps 607 mmHg 82%
    19:00 +19°C° 0.9 mm 1 mps 607 mmHg 87%
    20:00 +18°C° 0.2 mm 1 mps 607 mmHg 90%
    21:00 +18°C° 0.2 mm 1 mps 607 mmHg 92%
    22:00 +16°C° 0.2 mm 1 mps 608 mmHg 95%
    23:00 +16°C° 0.3 mm 1 mps 607 mmHg 94%

    Mañana, 17 Diciembre, Martes

    Tiempo Temperatura Precipitaciones Viento Presión Humedad
    00:00 +16°C° 0.3 mm 1 mps 607 mmHg 94%
    01:00 +16°C° 0.3 mm 1 mps 607 mmHg 94%
    02:00 +16°C° 1.4 mm 1 mps 607 mmHg 93%
    03:00 +16°C° 1.4 mm 2 mps 607 mmHg 92%
    04:00 +16°C° 1.4 mm 2 mps 607 mmHg 92%
    05:00 +16°C° 0.3 mm 2 mps 607 mmHg 90%
    06:00 +16°C° 0.3 mm 2 mps 607 mmHg 88%
    07:00 +16°C° 0.3 mm 2 mps 608 mmHg 87%
    08:00 +17°C° 0.1 mm 2 mps 608 mmHg 83%
    09:00 +18°C° 0.1 mm 2 mps 608 mmHg 79%
    10:00 +19°C° 0.1 mm 2 mps 609 mmHg 75%
    11:00 +20°C° 0 mm 2 mps 609 mmHg 70%
    12:00 +22°C° 0 mm 1 mps 608 mmHg 65%
    13:00 +23°C° 0 mm 1 mps 608 mmHg 60%
    14:00 +24°C° 0.4 mm 1 mps 608 mmHg 59%
    15:00 +24°C° 0.4 mm 1 mps 607 mmHg 59%
    16:00 +24°C° 0.4 mm 1 mps 607 mmHg 58%
    17:00 +22°C° 0.4 mm 1 mps 607 mmHg 64%
    18:00 +21°C° 0.4 mm 1 mps 607 mmHg 70%
    19:00 +20°C° 0.4 mm 1 mps 607 mmHg 76%
    20:00 +19°C° 0.7 mm 1 mps 607 mmHg 80%
    21:00 +17°C° 0.7 mm 0 mps 608 mmHg 85%
    22:00 +16°C° 0.7 mm 0 mps 608 mmHg 89%
    23:00 +16°C° 0.9 mm 0 mps 608 mmHg 91%

    Pasado mañana, 18 Diciembre, Miércoles

    Tiempo Temperatura Precipitaciones Viento Presión Humedad
    00:00 +16°C° 0.9 mm 0 mps 607 mmHg 92%
    01:00 +15°C° 0.9 mm 0 mps 607 mmHg 94%
    02:00 +15°C° 1.1 mm 0 mps 607 mmHg 94%
    03:00 +15°C° 1.1 mm 0 mps 607 mmHg 94%
    04:00 +15°C° 1.1 mm 0 mps 606 mmHg 94%
    05:00 +18°C° 0.5 mm 1 mps 607 mmHg 92%
    06:00 +18°C° 0.5 mm 1 mps 607 mmHg 90%
    07:00 +18°C° 0.5 mm 1 mps 608 mmHg 88%
    08:00 +20°C° 0.6 mm 1 mps 608 mmHg 82%
    09:00 +21°C° 0.6 mm 2 mps 609 mmHg 75%
    10:00 +23°C° 0.6 mm 2 mps 609 mmHg 69%
    11:00 +24°C° 0.6 mm 2 mps 609 mmHg 65%
    12:00 +25°C° 0.6 mm 2 mps 609 mmHg 60%
    13:00 +26°C° 0.6 mm 2 mps 609 mmHg 56%
    14:00 +25°C° 1.5 mm 2 mps 608 mmHg 59%
    15:00 +25°C° 1.5 mm 2 mps 607 mmHg 62%
    16:00 +24°C° 1.5 mm 2 mps 607 mmHg 65%
    17:00 +21°C° 1 mm 2 mps 607 mmHg 73%
    18:00 +21°C° 1 mm 1 mps 607 mmHg 81%
    19:00 +19°C° 1 mm 1 mps 607 mmHg 89%
    20:00 +19°C° 0.2 mm 1 mps 607 mmHg 91%
    21:00 +18°C° 0.2 mm 1 mps 607 mmHg 93%
    22:00 +18°C° 0.2 mm 1 mps 608 mmHg 96%
    23:00 +18°C° 0.1 mm 1 mps 607 mmHg 96%

    19 Diciembre, Jueves

    Tiempo Temperatura Precipitaciones Viento Presión Humedad
    00:00 +18°C° 0.1 mm 1 mps 607 mmHg 96%
    01:00 +18°C° 0.1 mm 1 mps 607 mmHg 96%
    02:00 +18°C° 0.2 mm 1 mps 607 mmHg 95%
    03:00 +15°C° 0.2 mm 0 mps 606 mmHg 94%
    04:00 +15°C° 0.2 mm 0 mps 606 mmHg 93%
    05:00 +16°C° 0.3 mm 0 mps 607 mmHg 91%
    06:00 +17°C° 0.3 mm 0 mps 607 mmHg 89%
    07:00 +17°C° 0.3 mm 0 mps 608 mmHg 86%
    08:00 +20°C° 1.2 mm 1 mps 608 mmHg 82%
    09:00 +21°C° 1.2 mm 1 mps 609 mmHg 77%
    10:00 +23°C° 1.2 mm 2 mps 609 mmHg 72%
    11:00 +23°C° 2.4 mm 1 mps 609 mmHg 72%
    12:00 +23°C° 2.4 mm 1 mps 608 mmHg 73%
    13:00 +23°C° 2.4 mm 1 mps 607 mmHg 73%
    14:00 +22°C° 1.6 mm 1 mps 607 mmHg 74%
    15:00 +22°C° 1.6 mm 1 mps 607 mmHg 76%
    16:00 +21°C° 1.6 mm 1 mps 606 mmHg 77%
    17:00 +20°C° 0.2 mm 1 mps 607 mmHg 83%
    18:00 +19°C° 0.2 mm 1 mps 607 mmHg 88%
    19:00 +18°C° 0.2 mm 1 mps 607 mmHg 94%
    20:00 +18°C° 0 mm 1 mps 607 mmHg 95%
    21:00 +17°C° 0 mm 2 mps 608 mmHg 95%
    22:00 +17°C° 0 mm 2 mps 608 mmHg 96%
    23:00 +16°C° 0.1 mm 1 mps 608 mmHg 96%

    20 Diciembre, Viernes

    Tiempo Temperatura Precipitaciones Viento Presión Humedad
    00:00 +16°C° 0.1 mm 1 mps 608 mmHg 96%
    01:00 +15°C° 0.1 mm 0 mps 608 mmHg 96%
    02:00 +15°C° 0 mm 0 mps 608 mmHg 96%
    03:00 +15°C° 0 mm 0 mps 608 mmHg 96%
    04:00 +15°C° 0 mm 0 mps 608 mmHg 96%
    05:00 +15°C° 0.2 mm 0 mps 608 mmHg 96%
    06:00 +16°C° 0.2 mm 1 mps 608 mmHg 95%
    07:00 +18°C° 0.2 mm 1 mps 609 mmHg 94%
    08:00 +19°C° 0.3 mm 1 mps 609 mmHg 88%
    09:00 +20°C° 0.3 mm 1 mps 610 mmHg 81%
    10:00 +22°C° 0.3 mm 1 mps 610 mmHg 75%
    11:00 +22°C° 2.2 mm 1 mps 610 mmHg 75%
    12:00 +22°C° 2.2 mm 1 mps 609 mmHg 76%
    13:00 +22°C° 2.2 mm 1 mps 609 mmHg 76%
    14:00 +21°C° 3.1 mm 2 mps 608 mmHg 79%
    15:00 +20°C° 3.1 mm 2 mps 607 mmHg 83%
    16:00 +19°C° 3.1 mm 2 mps 607 mmHg 86%
    17:00 +18°C° 1 mm 2 mps 607 mmHg 88%
    18:00 +17°C° 1 mm 2 mps 607 mmHg 89%
    19:00 +17°C° 1 mm 2 mps 607 mmHg 91%
    20:00 +17°C° 0.5 mm 2 mps 607 mmHg 90%
    21:00 +18°C° 0.5 mm 1 mps 608 mmHg 89%
    22:00 +18°C° 0.5 mm 1 mps 608 mmHg 88%
    23:00 +16°C° 0.2 mm 1 mps 608 mmHg 89%

    21 Diciembre, Sábado

    Tiempo Temperatura Precipitaciones Viento Presión Humedad
    00:00 +16°C° 0.2 mm 1 mps 608 mmHg 91%
    01:00 +16°C° 0.2 mm 1 mps 607 mmHg 92%
    02:00 +16°C° 0 mm 1 mps 607 mmHg 92%
    03:00 +15°C° 0 mm 1 mps 607 mmHg 91%
    04:00 +14°C° 0 mm 0 mps 606 mmHg 90%
    05:00 +16°C° 0 mm 1 mps 607 mmHg 88%
    06:00 +16°C° 0 mm 1 mps 608 mmHg 85%
    07:00 +18°C° 0 mm 1 mps 608 mmHg 82%
    08:00 +19°C° 0 mm 1 mps 609 mmHg 78%
    09:00 +21°C° 0 mm 1 mps 609 mmHg 73%
    10:00 +22°C° 0 mm 1 mps 609 mmHg 69%
    11:00 +22°C° 1 mm 1 mps 609 mmHg 69%
    12:00 +22°C° 1 mm 1 mps 608 mmHg 70%
    13:00 +22°C° 1 mm 1 mps 608 mmHg 70%
    14:00 +22°C° 0.5 mm 1 mps 608 mmHg 69%
    15:00 +22°C° 0.5 mm 1 mps 607 mmHg 68%
    16:00 +21°C° 0.5 mm 0 mps 607 mmHg 67%
    17:00 +19°C° 0.7 mm 0 mps 607 mmHg 72%
    18:00 +18°C° 0.7 mm 0 mps 607 mmHg 78%
    19:00 +17°C° 0.7 mm 0 mps 607 mmHg 84%
    20:00 +18°C° 0.1 mm 1 mps 607 mmHg 86%
    21:00 +18°C° 0.1 mm 1 mps 607 mmHg 88%
    22:00 +16°C° 0.1 mm 1 mps 608 mmHg 91%
    23:00 +16°C° 0.3 mm 1 mps 607 mmHg 91%
    Mostrar más